Probability
0 0 0 0 0 0 0 0 0 0 0 0 0 0 0 0 0 0 0 0 0 0 3 13 23 16 13 13 16 19 16 23 23 29 23 23 26 19 13 13 10 13 16 10 23 23 16 10 0
0 0 0 0 0 0 0 0 0 0 0 0 0 0 0 0 0 0 0 0 0 0 3 3 16 16 10 16 16 16 19 16 23 26 23 19 26 19 16 16 13 16 10 6 16 16 13 6 0
0 0 0 0 0 0 0 0 0 0 0 0 0 0 0 0 0 0 0 0 0 0 3 3 16 16 16 13 13 16 13 16 16 19 23 19 16 16 16 13 13 13 10 6 6 6 3 3 6
0 0 0 0 0 0 0 0 0 0 0 0 0 0 0 0 0 0 0 0 0 0 3 3 13 10 13 13 13 13 13 16 16 16 13 13 10 6 16 13 13 10 6 6 6 6 3 0 3
0 0 0 0 0 0 0 0 0 0 0 0 0 0 0 0 0 0 0 0 0 0 3 3 10 10 10 10 6 10 10 13 16 16 13 10 13 10 13 16 16 13 10 6 6 3 3 0 0
0 0 0 0 0 0 0 0 0 0 0 0 0 0 0 0 0 0 0 0 0 0 3 3 13 10 6 3 3 3 6 10 16 16 13 13 10 6 6 6 6 10 10 10 10 10 6 3 3
0 0 0 0 0 0 0 0 0 0 0 0 0 0 0 0 0 0 0 0 0 3 3 3 3 3 3 3 3 3 3 3 6 10 10 6 6 6 6 6 3 6 10 10 10 6 3 0 0
0 0 0 0 0 0 0 0 0 0 0 0 0 0 0 0 0 0 0 0 3 0 3 3 3 0 0 3 0 0 0 0 0 3 3 3 3 0 3 3 0 0 3 6 6 3 3 0 0
0 0 0 0 0 0 0 0 0 0 0 0 0 0 0 0 0 0 0 0 0 0 3 3 0 0 0 0 0 0 0 0 0 0 0 0 0 0 0 0 0 0 3 3 6 3 3 0 0
0 0 0 0 0 0 0 0 0 0 0 0 0 0 0 0 0 0 0 0 0 0 0 0 0 0 0 0 0 0 0 0 0 0 0 0 3 0 0 0 0 0 0 0 0 0 0 0 0
0 0 0 0 0 0 0 0 0 0 0 0 0 0 0 0 0 0 0 0 0 0 3 0 0 0 0 0 0 0 0 0 0 0 0 0 0 0 0 0 0 0 0 0 0 0 0 0 0
0 0 0 0 0 0 0 0 0 0 0 0 0 0 0 0 0 0 0 0 0 0 0 0 0 0 0 0 0 0 0 0 0 0 0 0 0 0 0 0 0 0 0 0 0 0 0 0 0
0 0 0 0 0 0 0 0 0 0 0 0 0 0 0 0 0 0 0 0 0 0 0 0 0 0 0 0 0 0 0 0 0 0 0 0 0 0 0 0 0 0 0 0 0 0 0 0 0
0 0 0 0 0 0 0 0 0 0 0 0 0 0 0 0 0 0 0 0 0 0 0 0 0 0 0 0 0 0 0 0 0 0 0 0 0 0 0 0 0 0 0 0 0 0 0 0 0
0 0 0 0 0 0 0 0 0 0 0 0 0 0 0 0 0 0 0 0 0 0 0 0 0 0 0 0 0 0 0 0 0 0 0 0 0 0 0 0 0 0 0 0 0 0 0 0 0
0 0 0 0 0 0 0 0 0 0 0 0 0 0 0 0 0 0 0 0 0 3 0 0 0 0 0 0 0 0 0 0 0 0 0 0 0 0 0 0 0 0 0 0 0 0 0 0 0
0 0 0 0 0 0 0 0 0 0 0 0 0 0 0 0 0 0 0 0 0 0 0 0 0 0 0 0 0 0 0 0 0 0 0 0 0 0 0 0 0 0 0 0 0 0 0 0 0
0 0 0 0 0 0 0 0 0 0 0 0 0 0 0 0 0 0 0 0 0 0 0 0 0 0 0 0 0 0 0 0 0 0 0 0 0 0 0 0 0 0 0 0 0 0 0 0 0
0 0 0 0 0 0 0 0 0 0 0 0 0 0 0 0 0 0 0 0 0 0 0 0 0 0 0 0 0 0 0 0 0 0 0 0 0 0 0 0 0 0 0 0 0 0 0 0 0
0 0 0 0 0 0 0 0 0 0 0 0 0 0 0 0 0 0 0 0 0 0 0 0 0 0 0 0 0 0 0 0 0 0 0 0 0 0 0 0 0 0 0 0 0 0 0 0 0
0 0 0 0 0 0 0 0 0 0 0 0 0 0 0 0 0 0 0 0 0 0 0 0 0 0 0 0 0 0 0 0 0 0 0 0 0 0 0 0 0 0 0 0 0 0 0 0 0
0 0 0 0 0 0 0 0 0 0 0 0 0 0 0 0 0 0 0 0 0 0 0 0 0 0 0 0 0 0 0 0 0 0 0 0 0 0 0 0 0 0 0 0 0 0 0 0 0
0 0 0 0 0 0 0 0 0 0 0 0 0 0 0 0 0 0 0 0 0 0 0 0 0 0 0 0 0 0 0 0 0 0 0 0 0 0 0 0 0 0 0 0 0 0 0 0 0
0 0 0 0 0 0 0 0 0 0 0 0 0 0 0 0 0 0 0 0 0 0 0 0 0 0 0 0 0 0 0 0 0 0 0 0 0 0 0 0 0 0 0 0 0 0 0 0 0
0 0 0 0 0 0 0 0 0 0 0 0 0 0 0 0 0 0 0 0 0 0 0 0 0 0 0 0 0 0 0 0 0 0 0 0 0 0 0 0 0 0 0 0 0 0 0 0 0
0 0 0 0 0 0 0 0 0 0 0 0 0 0 0 0 0 0 0 0 0 0 0 0 0 0 0 0 0 0 0 0 0 0 0 0 0 0 0 0 0 0 0 0 0 0 0 0 0
0 0 0 0 0 0 0 0 0 0 0 0 0 0 0 0 0 0 0 0 0 0 0 0 0 0 0 0 0 0 0 0 0 0 0 0 0 0 0 0 0 0 0 0 0 0 0 0 0
0 0 0 0 0 0 0 0 0 0 0 0 0 0 0 0 0 0 0 0 0 0 0 0 0 0 0 0 0 0 0 0 0 0 0 0 0 0 0 0 0 0 0 0 0 0 0 0 0
0 0 0 0 0 0 0 0 0 0 0 0 0 0 0 0 0 0 0 0 0 0 0 0 0 0 0 0 0 0 0 0 0 0 0 0 0 0 0 0 0 0 0 0 0 0 0 0 0
0 0 0 0 0 0 0 0 0 0 0 0 0 0 0 0 0 0 0 0 0 0 0 0 0 0 0 0 0 0 0 0 0 0 0 0 0 0 0 0 0 0 0 0 0 0 0 0 0
Height
5810 5811 5812 5813 5814 5814 5814 5815 5815 5816 5815 5815 5816 5816 5817 5817 5818 5821 5819 5819 5819 5819 5820 5821 5821 5822 5823 5824 5825 5825 5826 5827 5828 5829 5830 5831 5832 5833 5834 5835 5835 5836 5837 5838 5839 5839 5841 5841 5842
5807 5808 5809 5810 5810 5810 5811 5811 5812 5812 5812 5812 5812 5812 5812 5813 5813 5813 5813 5814 5814 5815 5815 5816 5817 5818 5818 5819 5820 5821 5822 5823 5824 5825 5826 5827 5828 5829 5830 5831 5832 5833 5834 5835 5836 5837 5838 5839 5840
5803 5804 5805 5805 5806 5807 5807 5807 5808 5807 5807 5808 5808 5808 5808 5808 5808 5808 5809 5809 5809 5810 5811 5811 5812 5813 5813 5814 5815 5816 5817 5818 5820 5821 5822 5823 5824 5825 5826 5827 5828 5829 5830 5831 5832 5833 5834 5836 5837
5799 5800 5801 5802 5802 5803 5803 5803 5803 5802 5803 5803 5803 5803 5803 5804 5804 5804 5804 5804 5804 5805 5805 5806 5806 5807 5808 5809 5810 5811 5812 5813 5814 5816 5817 5818 5819 5821 5822 5823 5824 5825 5826 5827 5828 5830 5831 5832 5834
5795 5795 5796 5796 5797 5798 5798 5798 5798 5798 5798 5798 5798 5798 5798 5798 5798 5798 5798 5798 5798 5799 5799 5799 5800 5801 5802 5803 5804 5805 5806 5807 5808 5810 5811 5813 5814 5815 5817 5818 5820 5821 5822 5823 5824 5825 5827 5829 5830
5790 5791 5791 5791 5793 5793 5793 5792 5792 5792 5792 5792 5792 5792 5793 5793 5792 5792 5792 5792 5792 5792 5792 5793 5793 5794 5795 5796 5797 5798 5799 5801 5802 5804 5805 5807 5808 5810 5811 5813 5815 5816 5817 5818 5819 5821 5822 5824 5826
5786 5785 5785 5786 5787 5788 5788 5787 5786 5786 5786 5786 5786 5786 5786 5786 5786 5786 5785 5785 5785 5785 5786 5786 5786 5787 5788 5789 5790 5791 5792 5794 5795 5797 5799 5800 5802 5804 5805 5807 5809 5810 5812 5813 5814 5816 5817 5819 5821
5779 5780 5780 5780 5781 5782 5782 5780 5780 5779 5779 5779 5779 5779 5780 5779 5779 5778 5778 5778 5778 5778 5779 5779 5779 5780 5780 5782 5783 5784 5785 5786 5788 5789 5791 5793 5795 5797 5798 5800 5802 5804 5806 5807 5809 5810 5812 5814 5816
5773 5774 5774 5775 5775 5775 5775 5774 5773 5772 5772 5772 5772 5772 5772 5771 5771 5771 5771 5771 5770 5771 5771 5771 5772 5772 5773 5774 5775 5776 5778 5779 5780 5781 5783 5785 5787 5789 5791 5793 5795 5797 5799 5801 5802 5804 5806 5808 5810
5767 5767 5768 5768 5768 5768 5767 5766 5766 5765 5765 5764 5764 5764 5764 5764 5763 5763 5763 5763 5763 5762 5762 5763 5764 5764 5765 5766 5767 5768 5770 5771 5772 5773 5775 5777 5779 5781 5783 5785 5787 5789 5792 5794 5796 5797 5800 5802 5804
5760 5761 5761 5761 5760 5760 5759 5759 5758 5758 5757 5757 5756 5756 5756 5755 5755 5755 5754 5754 5754 5754 5754 5754 5755 5756 5756 5757 5759 5760 5761 5762 5764 5765 5767 5768 5770 5772 5775 5777 5779 5782 5784 5786 5788 5790 5793 5795 5797
5754 5754 5753 5753 5752 5751 5751 5751 5750 5749 5749 5748 5747 5747 5747 5747 5746 5746 5746 5746 5745 5745 5745 5745 5746 5747 5747 5748 5750 5751 5752 5754 5755 5756 5757 5759 5761 5763 5765 5768 5771 5773 5776 5778 5780 5783 5785 5787 5790
5746 5746 5745 5744 5744 5743 5743 5742 5742 5741 5740 5739 5738 5737 5737 5737 5737 5737 5737 5736 5736 5736 5736 5737 5737 5738 5738 5739 5740 5742 5743 5745 5746 5747 5748 5750 5752 5754 5756 5758 5761 5764 5766 5769 5771 5774 5776 5779 5782
5738 5737 5737 5736 5735 5734 5733 5733 5732 5732 5730 5729 5728 5727 5727 5727 5727 5727 5727 5727 5727 5727 5727 5727 5728 5728 5729 5730 5731 5733 5734 5735 5736 5738 5739 5740 5742 5744 5746 5748 5751 5753 5756 5759 5762 5764 5767 5770 5773
5729 5728 5728 5727 5726 5725 5723 5723 5723 5721 5720 5719 5718 5717 5716 5716 5716 5717 5717 5717 5717 5717 5717 5718 5718 5719 5719 5720 5721 5723 5724 5726 5727 5728 5729 5731 5732 5734 5736 5738 5741 5743 5745 5748 5751 5754 5757 5760 5764
5720 5719 5719 5718 5716 5714 5714 5714 5713 5710 5709 5708 5707 5706 5705 5705 5705 5705 5706 5706 5706 5707 5707 5707 5708 5708 5709 5710 5711 5713 5714 5716 5717 5718 5719 5721 5722 5724 5725 5728 5730 5732 5734 5737 5740 5743 5747 5750 5754
5710 5709 5709 5708 5706 5704 5703 5703 5702 5699 5698 5697 5696 5695 5694 5694 5694 5694 5694 5695 5695 5695 5696 5697 5697 5698 5699 5700 5701 5703 5704 5705 5706 5708 5709 5710 5712 5713 5715 5717 5718 5720 5723 5725 5728 5732 5735 5739 5743
5701 5700 5698 5697 5695 5692 5691 5691 5690 5687 5686 5685 5684 5683 5683 5683 5683 5682 5682 5683 5683 5684 5685 5685 5686 5687 5688 5690 5691 5692 5693 5694 5695 5697 5698 5700 5701 5703 5704 5706 5707 5709 5711 5714 5716 5720 5724 5728 5732
5691 5689 5688 5686 5683 5681 5680 5679 5678 5675 5674 5673 5672 5671 5671 5671 5671 5670 5670 5671 5671 5672 5673 5673 5675 5676 5677 5679 5680 5681 5682 5683 5684 5686 5687 5689 5691 5692 5693 5695 5696 5698 5700 5702 5705 5708 5712 5716 5720
5681 5678 5677 5675 5672 5669 5667 5666 5665 5663 5662 5661 5660 5659 5659 5659 5659 5659 5659 5659 5659 5660 5661 5662 5663 5664 5665 5667 5668 5669 5670 5672 5673 5674 5676 5678 5679 5681 5682 5683 5685 5686 5689 5691 5693 5696 5699 5703 5707
5670 5668 5666 5663 5660 5657 5655 5654 5654 5652 5650 5649 5648 5647 5647 5646 5646 5646 5647 5647 5647 5648 5649 5650 5651 5652 5653 5655 5656 5657 5658 5659 5661 5663 5665 5666 5667 5669 5670 5671 5673 5674 5677 5679 5681 5684 5687 5691 5695
5659 5657 5654 5651 5647 5645 5643 5640 5642 5640 5638 5637 5636 5635 5634 5634 5634 5634 5634 5635 5636 5636 5637 5638 5639 5640 5641 5643 5644 5645 5646 5648 5649 5651 5653 5654 5655 5656 5658 5659 5660 5662 5664 5666 5669 5671 5675 5678 5682
5648 5645 5642 5638 5635 5633 5631 5627 5629 5627 5626 5625 5624 5623 5622 5622 5622 5622 5622 5623 5623 5624 5624 5625 5626 5627 5629 5630 5631 5632 5634 5635 5637 5638 5640 5641 5643 5644 5645 5646 5648 5649 5651 5653 5656 5659 5662 5665 5669
5636 5633 5629 5626 5622 5620 5620 5616 5615 5615 5614 5613 5612 5611 5610 5610 5610 5610 5610 5610 5611 5611 5612 5613 5614 5615 5616 5617 5618 5620 5621 5623 5624 5626 5627 5628 5630 5631 5632 5633 5634 5635 5637 5640 5643 5646 5649 5652 5656
5625 5622 5617 5613 5610 5609 5608 5604 5604 5603 5602 5601 5600 5599 5598 5598 5598 5598 5598 5599 5599 5599 5600 5600 5601 5602 5603 5604 5606 5607 5608 5610 5611 5612 5614 5615 5616 5617 5618 5619 5621 5622 5624 5626 5629 5633 5636 5639 5643
5613 5610 5607 5603 5600 5598 5596 5593 5594 5592 5590 5589 5588 5587 5587 5586 5586 5586 5587 5587 5587 5587 5588 5588 5589 5590 5590 5591 5592 5594 5595 5596 5598 5599 5600 5601 5603 5604 5604 5605 5607 5609 5611 5613 5615 5619 5622 5626 5629
5601 5599 5596 5593 5589 5587 5585 5583 5583 5581 5580 5578 5577 5576 5575 5575 5574 5574 5574 5575 5575 5575 5576 5576 5577 5577 5577 5578 5579 5580 5581 5582 5584 5585 5586 5587 5588 5589 5590 5591 5593 5595 5597 5599 5602 5605 5608 5612 5615
5591 5588 5585 5582 5578 5576 5574 5573 5573 5571 5569 5568 5566 5565 5564 5563 5563 5562 5562 5562 5562 5562 5563 5563 5564 5565 5565 5565 5566 5566 5567 5568 5569 5570 5572 5573 5574 5575 5576 5578 5580 5581 5583 5586 5588 5591 5594 5598 5601
5582 5579 5575 5572 5569 5566 5563 5566 5563 5561 5559 5557 5555 5554 5553 5552 5551 5550 5550 5550 5550 5550 5550 5550 5551 5551 5552 5552 5552 5553 5553 5554 5555 5556 5557 5558 5559 5561 5563 5564 5566 5568 5570 5572 5574 5578 5581 5584 5587
5571 5568 5566 5563 5560 5557 5554 5557 5552 5550 5548 5546 5545 5543 5542 5541 5540 5539 5538 5538 5538 5537 5537 5537 5538 5538 5538 5538 5539 5539 5539 5540 5541 5542 5543 5544 5545 5547 5548 5550 5552 5554 5556 5559 5561 5564 5567 5570 5573
Wind_Speed
18 18 18 18 18 19 18 18 18 18 18 19 18 18 19 19 19 20 20 20 21 21 21 21 21 21 21 21 22 21 21 20 20 20 21 20 20 20 19 19 19 18 17 17 16 16 15 15 15
19 19 19 20 20 20 19 19 18 18 19 20 20 20 20 20 20 20 21 22 22 23 23 23 23 23 23 23 24 24 23 23 22 22 22 22 21 21 20 20 20 20 19 19 18 18 17 16 16
20 20 21 21 21 20 19 19 19 20 20 21 22 22 21 21 21 21 22 22 23 24 24 25 25 25 25 25 25 26 26 25 25 24 23 23 23 22 22 22 22 22 22 20 20 19 18 18 17
20 21 22 22 21 20 20 20 20 21 21 22 22 22 22 22 22 23 23 23 24 24 25 26 26 27 27 27 27 27 28 28 27 26 25 25 25 24 24 23 23 23 23 23 22 21 20 20 19
22 23 24 23 22 21 21 22 23 23 23 23 23 23 23 23 24 24 24 25 25 26 26 26 27 28 29 29 29 29 30 30 29 29 28 28 27 27 26 25 25 24 24 24 23 23 22 22 21
23 24 25 24 23 23 23 24 25 25 25 25 25 25 25 25 25 26 26 26 27 27 27 27 28 29 30 31 31 31 31 32 31 31 31 30 30 29 28 28 27 26 26 25 25 25 24 23 23
24 24 25 25 25 25 24 26 27 27 27 26 27 27 26 27 27 28 28 28 29 29 29 29 29 30 30 31 32 32 32 32 33 33 32 32 32 31 31 30 29 29 28 27 27 27 26 25 24
25 26 25 25 26 25 26 27 28 28 28 29 29 28 28 29 29 29 30 30 30 30 31 31 31 31 31 31 32 33 33 33 34 35 35 34 34 33 33 32 32 31 30 29 29 28 28 28 27
26 27 26 26 27 27 27 28 29 30 30 31 31 30 30 30 31 31 31 31 32 32 32 32 33 33 33 33 33 34 34 35 35 36 36 37 36 36 35 35 34 33 33 32 31 30 30 29 28
27 28 27 27 28 28 28 29 30 31 31 32 32 32 32 32 32 32 32 32 33 33 33 33 34 34 35 35 35 35 36 36 36 37 37 37 38 38 38 37 37 36 35 34 33 32 31 31 31
29 28 28 29 29 29 29 30 31 32 32 33 33 33 33 33 33 33 33 32 33 33 34 34 34 35 36 36 37 37 37 38 38 38 38 38 39 39 39 39 39 38 38 37 36 35 34 33 33
30 29 30 30 31 31 31 31 32 32 33 34 35 35 35 35 34 34 34 34 34 34 34 35 35 35 36 36 37 37 38 38 39 40 40 40 40 40 41 41 41 41 40 40 39 38 36 35 35
31 31 31 31 31 32 32 32 33 34 34 35 36 36 36 36 36 36 35 36 36 35 35 36 36 37 37 37 38 38 38 38 39 40 40 41 41 41 41 42 42 42 42 42 41 40 39 38 37
31 31 32 32 33 33 34 34 35 34 36 36 37 37 37 37 37 37 37 37 37 37 37 37 37 38 38 38 38 38 39 39 39 39 40 41 42 42 42 42 43 43 43 43 43 42 41 40 39
32 33 33 33 34 34 35 36 36 36 37 38 38 38 38 38 38 38 38 38 38 39 39 39 38 39 39 38 38 38 39 40 40 40 40 41 42 42 43 43 44 44 44 44 44 44 43 43 41
33 34 34 34 35 35 37 37 37 37 38 39 39 39 39 39 39 40 40 40 40 40 40 40 40 40 40 39 39 39 39 40 41 41 41 41 42 42 42 43 44 45 45 46 46 46 45 45 44
33 34 35 36 36 37 38 38 38 38 39 40 40 40 40 40 40 41 41 41 41 41 41 41 41 41 41 40 40 40 40 41 41 41 41 41 41 41 42 43 43 45 45 46 47 47 47 46 45
34 35 36 36 37 38 39 39 39 39 39 40 41 41 40 40 40 41 41 42 42 43 43 43 42 42 42 42 42 42 42 42 41 41 42 42 41 41 42 42 43 44 45 46 47 48 49 48 47
35 36 36 37 38 39 40 40 40 40 40 40 41 41 41 41 41 41 42 42 42 43 44 43 43 43 44 44 43 43 43 43 43 43 43 43 43 42 43 43 44 44 45 46 47 48 49 49 49
35 36 37 37 38 40 40 40 40 40 40 40 41 41 42 42 42 42 43 42 42 43 44 44 44 44 44 44 44 44 44 45 45 45 45 45 44 44 44 43 44 45 45 46 47 48 49 50 51
36 37 38 39 40 41 42 41 39 39 39 39 40 41 42 42 43 43 42 42 42 43 43 44 44 44 45 45 45 45 45 45 45 45 45 45 45 46 46 45 46 46 46 47 47 48 49 51 52
37 38 40 40 41 41 41 42 39 38 39 39 40 41 41 41 42 43 43 43 43 43 44 44 44 45 45 45 46 45 45 45 46 46 46 46 47 47 47 47 47 48 48 47 48 49 49 50 51
38 40 41 41 41 41 40 42 40 39 39 39 39 40 41 41 41 41 41 42 43 43 44 44 45 45 45 45 46 46 46 45 46 46 46 47 48 48 48 47 48 48 47 48 49 49 49 50 51
38 39 40 41 41 41 39 40 41 40 39 38 38 39 39 40 40 40 40 41 42 42 43 43 44 45 45 46 46 46 46 46 46 47 47 47 47 48 49 49 48 48 48 48 49 50 50 51 52
38 38 39 40 40 40 38 39 40 39 38 37 36 37 37 38 39 39 40 40 41 41 42 42 43 44 45 46 46 47 47 48 48 49 49 48 48 48 49 49 49 48 47 48 49 51 51 52 52
37 37 37 38 38 38 37 38 38 37 37 36 36 36 36 37 38 39 39 40 40 40 41 41 42 43 44 45 46 46 47 48 49 49 49 50 49 49 50 50 49 48 49 49 50 51 51 52 52
36 35 35 36 37 37 37 37 37 36 36 36 36 37 36 37 38 39 39 40 40 41 41 41 42 43 44 44 45 46 47 48 49 50 50 50 50 50 49 50 50 49 49 50 50 51 52 52 52
34 33 32 33 35 36 37 36 36 35 35 35 35 35 35 36 37 38 39 40 41 42 42 42 42 43 43 44 45 47 48 48 49 49 50 51 50 49 50 50 50 50 50 51 51 52 52 52 53
32 31 32 32 33 34 35 35 35 35 34 34 34 35 35 36 37 38 38 39 41 42 43 43 43 44 44 45 45 46 48 48 49 49 49 50 51 51 50 50 50 50 50 50 50 51 52 52 53
30 30 31 32 33 33 34 34 34 34 34 34 34 35 36 36 37 37 38 39 40 41 42 44 45 45 45 45 46 46 46 47 48 49 49 49 50 51 52 52 51 50 51 51 50 51 52 53 53
Wind_Direction
251 252 251 251 252 254 256 256 257 257 257 258 259 258 259 261 262 261 259 257 256 255 254 252 251 249 247 247 246 246 245 246 246 245 244 244 243 244 246 245 244 244 243 241 241 240 239 238 238
252 252 251 253 255 257 258 258 259 258 258 260 259 259 260 261 262 262 260 257 256 255 254 253 252 250 249 248 248 247 245 245 246 245 245 243 243 245 244 242 244 245 244 244 243 242 240 239 239
253 252 253 255 256 258 260 260 260 259 259 260 260 260 260 261 260 261 260 258 256 255 255 254 253 252 250 249 248 248 247 245 245 245 245 245 245 245 245 245 246 246 245 243 241 242 240 239 240
254 255 256 257 258 258 260 261 262 262 262 262 262 262 261 261 261 261 261 260 258 256 255 254 253 252 251 249 249 249 248 247 245 245 246 246 245 246 246 246 248 247 245 243 241 242 241 240 241
258 258 258 259 260 261 262 263 263 264 263 263 262 262 262 261 261 261 261 261 260 259 258 256 254 253 253 251 249 249 249 250 249 248 247 247 247 247 247 247 246 248 247 245 244 243 243 241 242
260 261 261 261 261 261 262 263 264 265 265 264 263 263 262 262 262 262 261 261 260 260 259 258 257 255 254 252 251 250 250 250 250 250 249 248 247 248 247 247 247 248 248 247 246 245 242 242 243
260 260 261 262 261 262 263 264 264 266 266 265 265 265 264 263 263 263 262 262 261 260 259 259 258 257 255 253 251 251 251 251 251 250 249 249 248 248 248 247 247 248 248 248 247 246 244 242 243
261 261 262 262 263 264 264 264 266 266 266 266 266 266 266 265 264 264 263 263 262 261 259 259 259 258 257 255 252 252 252 252 252 251 250 250 249 249 249 249 248 247 247 246 246 246 245 243 243
264 264 265 266 266 265 264 265 265 266 266 267 267 267 266 266 265 264 263 263 262 261 260 259 258 257 257 256 254 253 253 253 253 253 252 251 250 249 249 249 248 246 245 245 245 246 246 245 244
266 267 268 268 268 267 266 266 266 267 267 268 268 267 267 266 265 265 264 263 262 261 260 259 258 256 256 256 256 255 254 254 253 253 253 252 251 250 249 248 247 246 245 245 246 246 247 247 246
267 268 268 268 269 268 267 267 267 267 267 268 268 268 266 266 265 264 263 262 262 261 260 260 259 257 256 256 256 256 256 255 254 254 253 252 251 250 249 248 247 247 246 246 247 247 247 248 248
269 269 269 270 269 269 268 268 268 269 269 269 269 268 267 266 265 264 264 263 262 262 262 260 259 259 258 257 256 256 256 256 254 254 253 252 251 250 249 249 249 248 248 249 249 248 248 248 248
269 269 269 270 270 270 270 269 269 270 270 269 269 268 267 266 264 263 263 262 262 261 262 261 260 260 259 257 256 256 256 256 256 255 254 253 253 251 250 250 249 248 248 248 248 248 248 247 248
270 269 270 270 270 270 271 270 270 270 270 269 268 268 266 265 263 263 262 262 261 261 261 261 261 260 259 258 257 257 256 256 257 256 255 254 253 252 251 250 249 249 248 248 248 247 247 247 247
270 270 270 271 271 271 272 272 272 271 271 270 269 268 267 265 263 263 262 262 262 260 260 259 260 260 259 258 257 257 256 256 257 257 256 255 254 253 252 251 250 249 249 248 248 247 247 247 247
272 271 271 271 271 272 272 272 273 272 270 269 269 268 267 265 264 263 262 262 261 260 260 260 259 259 258 257 257 257 257 256 257 257 256 255 255 254 254 252 251 250 249 249 248 247 246 246 246
273 274 274 274 273 273 272 273 272 272 270 269 269 268 267 266 264 263 262 261 261 261 260 260 259 258 257 255 256 258 258 256 256 256 256 256 256 255 255 253 252 252 250 249 247 247 246 246 245
276 276 276 277 276 275 274 274 273 272 270 269 268 267 266 265 264 263 263 262 261 261 260 259 258 256 255 256 258 258 257 256 256 256 255 256 257 257 256 255 254 253 251 249 248 247 246 245 244
279 279 279 279 278 277 276 274 273 272 271 269 267 266 265 264 264 263 262 261 260 260 259 259 258 257 256 256 257 257 257 256 255 256 256 257 257 257 257 257 255 254 252 251 249 247 246 245 244
280 280 281 280 280 279 277 275 274 273 272 270 268 267 265 264 263 262 262 261 260 260 259 259 258 257 256 257 257 256 256 255 254 254 255 256 257 257 257 257 256 254 252 251 249 248 246 245 244
281 281 282 282 281 280 279 276 275 273 272 270 268 268 267 265 263 262 262 262 261 260 259 259 258 258 257 257 257 257 257 256 255 254 256 256 257 257 257 256 256 255 253 252 250 248 245 244 244
282 282 282 282 281 280 279 278 275 275 273 271 270 268 266 265 263 262 262 262 261 261 260 259 258 257 257 257 258 257 257 256 255 254 255 256 256 257 257 256 256 255 253 252 250 249 247 245 245
283 283 283 282 280 279 278 278 277 276 275 274 271 269 266 264 264 262 261 261 261 261 261 259 258 258 258 258 257 256 256 256 255 255 254 255 256 257 258 257 255 254 252 251 250 248 247 247 246
285 284 283 281 279 277 278 279 279 278 277 276 273 270 267 265 263 262 262 261 261 261 261 260 259 259 259 258 258 257 256 256 256 256 256 257 257 258 258 257 255 253 252 250 249 248 248 248 246
286 285 284 282 280 279 279 279 279 279 279 278 275 271 268 265 263 263 262 262 262 261 260 260 259 259 259 259 259 258 257 257 257 257 257 257 258 258 258 257 255 253 252 251 249 248 248 248 247
287 285 284 284 283 282 280 280 280 280 280 278 276 273 269 266 264 264 263 262 262 261 261 260 260 260 259 259 259 259 259 258 258 258 257 257 257 258 257 256 254 252 252 251 249 247 248 247 247
287 284 283 282 282 282 281 281 280 280 279 278 276 274 272 269 266 265 264 264 263 262 261 260 260 260 260 259 260 260 260 259 259 259 258 258 258 257 256 255 254 253 252 250 250 249 248 248 247
288 285 283 282 283 282 281 281 281 281 280 279 279 277 274 272 269 266 265 265 263 262 261 261 261 261 261 260 260 260 260 260 259 259 259 258 256 255 254 254 254 253 252 251 250 250 248 248 247
290 286 282 282 282 283 284 282 281 280 280 280 279 277 275 274 272 269 267 266 264 263 263 262 262 262 262 262 261 261 261 260 259 259 259 258 256 254 252 252 252 252 252 251 250 250 250 248 247
290 287 283 281 282 284 285 284 282 280 280 279 279 278 277 275 273 271 269 267 266 266 265 263 263 263 263 263 263 263 262 261 260 260 259 258 255 254 253 252 252 251 251 251 251 251 250 249 247